• Join FlightAware (Why Join?)
  • Login
  • US Flag GB Flag 
21:50 EDT


 

Airport Tracker/Info


-or-


 

Live Flight TrackerFlight Track Log ✈ AWE1940 ✈ 01-May-2013 ✈ KRSW - KCLT

Flight Track Log - Related Links

Times and Time Zones

All times are in EDT time to prevent confusion due to time zone crossing. See the AWE1940 flight status page for this flight to view local times or setup timezone preferences in your user account.

Time Position Orientation Groundspeed Altitude Reporting Facility
EDT Latitude Longitude Course Direction KTS MPH feet Rate Location/Type
20:11 26.9074 -81.7333 North  Level FlightAware Approximate
20:11 26.6808 -81.8244 344° North 252 290 6,600  Level Miami Center
20:12 27.0316 -81.7393 340° North  Level FlightAware Approximate
20:12 26.7358 -81.8664 326° Northwest 264 304 9,400  Level Miami Center
20:13 27.1503 -81.7834 343° North  Level FlightAware Approximate
20:13 26.7928 -81.9106 325° Northwest 257 296 10,800  Level Miami Center
20:14 27.2699 -81.8246 340° North  Level FlightAware Approximate
20:14 26.8817 -81.9333 347° North 289 333 12,700  Level Miami Center
20:15 27.3888 -81.8685 344° North  Level FlightAware Approximate
20:15 26.9753 -81.9397 357° North 308 354 15,000  Level Miami Center
20:16 27.5088 -81.9085 344° North  Level FlightAware Approximate
20:16 27.0733 -81.9461 357° North 336 387 16,400  Level Miami Center
20:17 27.6288 -81.9485 344° North  Level FlightAware Approximate
20:17 27.1814 -81.9556 356° North 368 423 17,800  Level Miami Center
20:18 27.2897 -81.9628 357° North 385 443 19,400 1,500 Climbing Miami Center
20:19 27.3994 -81.9303 15° North 404 465 20,900 1,500 Climbing Miami Center
20:20 27.5100 -81.8742 24° Northeast 414 476 22,400 1,380 Climbing Miami Center
20:21 27.6119 -81.8225 24° Northeast 431 496 23,700 1,200 Climbing Miami Center
20:22 27.7303 -81.7783 18° North 443 510 24,800 1,020 Climbing Miami Center
20:23 27.8525 -81.7436 14° North 448 516 25,800 960 Climbing Miami Center
20:25 28.0037 -81.7285 North  Level Estimated
20:25 28.1053 -81.6675 North 464 534 27,700  Level Miami Center
20:26 28.2317 -81.6306 14° North 464 534 28,500 840 Climbing Miami Center
20:27 28.3625 -81.5914 15° North 469 540 29,400 780 Climbing Miami Center
20:28 28.4908 -81.5542 14° North 475 547 30,100 780 Climbing Miami Center
20:29 28.6017 -81.5211 15° North 482 555 30,900 840 Climbing Jacksonville Center
20:30 28.7306 -81.4814 15° North 511 588 31,700 840 Climbing Jacksonville Center
20:31 28.8639 -81.4606 North 493 567 32,600 840 Climbing Jacksonville Center
20:32 28.9958 -81.4847 351° North 473 544 33,400 960 Climbing Jacksonville Center
20:33 29.1278 -81.5281 344° North 478 550 34,600 1,080 Climbing Jacksonville Center
20:34 29.2639 -81.5739 344° North 472 543 35,600 780 Climbing Jacksonville Center
20:35 29.3936 -81.6008 350° North 467 537 36,200 600 Climbing Jacksonville Center
20:36 29.5253 -81.6133 355° North 472 543 36,900 360 Climbing Jacksonville Center
20:37 29.6569 -81.6306 354° North 472 543 37,000  Climbing Jacksonville Center
20:38 29.7886 -81.6458 354° North 472 543 37,000  Level Jacksonville Center
20:39 29.9225 -81.6631 354° North 467 537 37,000  Level Jacksonville Center
20:40 30.0542 -81.6808 353° North 473 544 37,000  Level Jacksonville Center
20:41 30.1858 -81.6958 354° North 473 544 37,000  Level Jacksonville Center
20:42 30.3194 -81.7086 355° North 478 550 37,000 -60 Level Jacksonville Center
20:43 30.4511 -81.7264 353° North 482 555 36,900  Descending Jacksonville Center
20:44 30.5767 -81.7464 352° North 486 559 37,000  Climbing Jacksonville Center
20:45 30.7083 -81.7642 353° North 481 554 37,000  Level Jacksonville Center
20:46 30.8422 -81.7819 353° North 481 554 37,000  Level Jacksonville Center
20:47 30.9781 -81.7997 354° North 486 559 37,000  Level Jacksonville Center
20:48 31.1117 -81.8175 354° North 486 559 37,000  Level Jacksonville Center
20:49 31.2475 -81.8356 354° North 486 559 37,000  Level Jacksonville Center
20:50 31.3939 -81.8508 355° North 476 548 37,000  Level Jacksonville Center
20:51 31.5131 -81.8692 353° North 471 542 37,000  Level Jacksonville Center
20:52 31.6614 -81.8894 353° North 488 562 37,000  Level Jacksonville Center
20:55 32.0439 -81.9389 354° North 505 581 37,000  Level Atlanta Center
20:56 32.1778 -81.9581 353° North 497 572 37,000  Level Atlanta Center
20:57 32.3075 -81.9722 355° North 485 558 37,000  Level Atlanta Center
20:58 32.4433 -81.9911 353° North 472 543 37,000  Level Atlanta Center
20:59 32.5753 -82.0078 354° North 472 543 37,000 -300 Level Atlanta Center
21:00 32.7069 -82.0269 353° North 479 551 36,500 -780 Descending Atlanta Center
21:01 32.8367 -82.0436 354° North 479 551 35,500 -1,020 Descending Atlanta Center
21:02 32.9664 -82.0631 353° North 473 544 34,500 -2,280 Descending Atlanta Center
21:03 33.0981 -82.0800 354° North 468 539 31,000 -3,540 Descending Atlanta Center
21:04 33.2319 -82.0967 354° North 468 539 27,500 -2,640 Descending Atlanta Center
21:05 33.3639 -82.1136 354° North 473 544 25,800 -1,320 Descending Atlanta Center
21:06 33.4936 -82.1333 353° North 473 544 24,900 -900 Descending Atlanta Center
21:07 33.6106 -82.1481 354° North 473 544 24,000 -480 Descending Atlanta Center
21:08 33.7403 -82.1603 356° North 468 539 24,000  Level Atlanta Center
21:09 33.8675 -82.1600 360° North 462 532 24,000  Level Atlanta Center
21:10 33.9886 -82.1572 North 450 518 24,000  Level Atlanta Center
21:11 34.1139 -82.1569 360° North 443 510 24,000 -300 Level Atlanta Center
21:12 34.2347 -82.1519 North 437 503 23,500 -1,500 Descending Atlanta Center
21:13 34.3231 -82.0694 38° Northeast 404 465 21,000 -2,040 Descending Atlanta Center
21:14 34.3967 -81.9719 48° Northeast 384 442 19,500 -1,500 Descending Atlanta Center
21:15 34.4661 -81.8822 47° Northeast 371 427 18,000 -1,740 Descending Atlanta Center
21:16 34.5375 -81.7944 45° Northeast 360 414 16,100 -2,580 Descending Atlanta Center
21:17 34.6089 -81.6992 48° Northeast 355 409 12,900 -2,640 Descending Atlanta Center
21:17 34.6333 -81.6733 41° Northeast 339 390 12,500 -1,080 Descending Atlanta Center
21:17 34.6517 -81.6500 46° Northeast 329 379 12,200 -1,320 Descending Atlanta Center
21:18 34.6722 -81.6267 43° Northeast 334 384 11,700 -1,200 Descending Atlanta Center
21:18 34.7067 -81.5803 48° Northeast 280 322 11,000 -720 Descending Atlanta Center
21:19 34.7250 -81.5569 46° Northeast 299 344 11,000  Level Atlanta Center
21:19 34.7617 -81.5103 46° Northeast 251 289 11,000  Level Atlanta Center
21:20 34.7739 -81.4950 46° Northeast 262 302 11,000 -420 Level Atlanta Center
21:21 34.7978 -81.4436 60° Northeast 238 274 10,600 -600 Descending Atlanta Center
21:21 34.7933 -81.4258 107° East 238 274 10,400 -1,380 Descending Atlanta Center
21:22 34.7756 -81.3733 112° Southeast 230 265 9,200 -1,620 Descending Atlanta Center
21:22 34.7686 -81.3508 111° Southeast 213 245 8,800 -1,140 Descending Atlanta Center
21:23 34.7403 -81.2961 122° Southeast 228 262 7,800 -900 Descending Atlanta Center
21:24 34.7097 -81.2339 121° Southeast 228 262 7,000 -540 Descending Atlanta Center
21:25 34.7164 -81.1631 83° East 221 254 6,900 -600 Descending Atlanta Center
21:26 34.7272 -81.0869 80° East 219 252 6,000 -480 Descending Atlanta Center
21:27 34.7381 -81.0183 79° East 219 252 6,000  Level Atlanta Center
21:28 34.7486 -80.9394 81° East 216 249 6,000  Level Atlanta Center
21:29 34.8128 -80.9219 13° North 242 278 6,000 -240 Level Atlanta Center
21:30 34.8733 -80.9222 360° North 225 259 5,600 -540 Descending Atlanta Center
21:31 34.9297 -80.9303 353° North 190 219 5,000 -360 Descending Atlanta Center
21:32 34.9842 -80.9358 355° North 201 231 4,900 -600 Descending Atlanta Center
21:33 35.0322 -80.9392 357° North 193 222 3,900 -1,140 Descending Atlanta Center